Content
SEND FEEDBACK

Daily
Averages
Monthly
Summary
Turkmenistan

ASHGABAT, TURKMENISTAN


Home > Asia > Turkmenistan
Elevation: 775 feet     Latitude: 37 58N     Longitude: 058 20E

WEATHER
 
SELECT A DAY
Number of Records: 181,250;   Date Range: 3/15/97 - 10/23/14
 
SHARE

PRINT THIS DATA

[ ← Previous Day ]
WEATHER ALMANAC - AUGUST 18, 2014
[ Next Day → ]
[ °C ]   °F
Weather ElementAverageHighLow
Temperature91.9 °F102.2 °F (12:00 pm)77 °F (3:00 am)
Dewpoint42.1 °F52 °F (5:00 am)37.4 °F (3:00 am)
Humidity17.2 %32 % (4:30 am)6 % (12:30 pm)
Barometer29.77 in29.80 in (11:00 am)29.73 in (8:00 am)
Wind Speed10.6 mph17.9 mph (3:30 pm)
Wind Gust17.9 mph (3:00 pm)
Weather ElementAverage
Visibility6.2 mi
Wind DirectionSE (138.6 °)

Weather ElementTotal
Precipitation---
Cooling Degree Days24.6 (Base 65)
Growing Degree Days39.6 (Base 50)
Averaged from 37 records on August 18, 2014
WEATHER CONDITIONS BREAKOUT
WIND DIRECTION BREAKOUT
WEATHER BY HOUR - AUGUST 18, 2014
[ °C ]   °F
Local TimeTemperatureDewpointHumidityBarometerVisibilityWind DirectionWind SpeedGust SpeedPrecipitationEventsConditions
12:00 AM89.6 °F41.0 °F18 %29.77 in6.2 miSSE (160°)8.9 mphClear
1:00 AM86.0 °F41.0 °F20 %29.74 in6.2 miSouth (180°)6.7 mph17.9 mphClear
2:00 AM81.0 °F50.0 °F23 %29.76 in6.0 miSouth (180°)6.7 mph
2:00 AM84.2 °F42.8 °F23 %29.74 in6.2 miSouth (180°)6.7 mphClear
2:30 AM84.2 °F42.8 °F23 %29.74 inSouth (170°)6.7 mphHaze
3:00 AM84.2 °F42.8 °F23 %29.74 in6.2 miSouth (180°)4.5 mphClear
4:00 AM82.4 °F42.8 °F25 %29.74 in6.2 miSouth (190°)6.7 mphClear
5:00 AM82.0 °F47.0 °F20 %29.75 in6.0 miSSW (210°)4.5 mph
5:00 AM80.6 °F42.8 °F26 %29.74 in6.2 miSSW (210°)4.5 mphClear
6:00 AM77.0 °F44.6 °F32 %29.77 in6.2 miNorth (360°)8.9 mphClear
7:00 AM77.0 °F44.6 °F32 %29.77 in6.2 miSSE (150°)4.5 mphClear
8:00 AM79.0 °F52.0 °F28 %29.79 in6.0 miSSW (200°)6.7 mph
8:00 AM82.4 °F46.4 °F28 %29.80 in6.2 miSSW (200°)6.7 mphClear
9:00 AM89.6 °F42.8 °F20 %29.80 in6.2 miSW (230°)6.7 mphClear
10:00 AM93.2 °F41.0 °F16 %29.80 in6.2 miEast (100°)4.5 mphClear
11:00 AM95.0 °F49.0 °F12 %29.80 in6.0 miEast (90°)6.7 mph
11:00 AM96.8 °F44.6 °F17 %29.80 in6.2 miENE (70°)8.9 mphClear
12:00 PM100.4 °F39.2 °F12 %29.80 in6.2 miEast (90°)13.4 mphClear
1:00 PM102.2 °F39.2 °F11 %29.80 in6.2 miEast (100°)17.9 mphClear
2:00 PM102.0 °F41.0 °F6 %29.77 in6.0 miEast (90°)15.7 mph
2:00 PM102.2 °F37.4 °F11 %29.77 in6.2 miEast (90°)17.9 mphClear
2:30 PM102.2 °F37.4 °F11 %29.77 in6.2 miEast (100°)17.9 mphClear
3:00 PM102.2 °F37.4 °F11 %29.77 in6.2 miEast (100°)15.7 mphPartly Cloudy
3:30 PM102.2 °F37.4 °F11 %29.74 in6.2 miEast (100°)15.7 mphPartly Cloudy
4:00 PM102.2 °F37.4 °F11 %29.74 in6.2 miEast (100°)15.7 mphClear
5:00 PM102.0 °F39.0 °F6 %29.73 in6.0 miEast (100°)15.7 mph
5:00 PM102.2 °F37.4 °F11 %29.74 in6.2 miEast (100°)15.7 mphClear
6:00 PM102.2 °F39.2 °F11 %29.74 in6.2 miEast (100°)13.4 mphClear
7:00 PM98.6 °F39.2 °F13 %29.74 in6.2 miEast (100°)11.2 mphClear
8:00 PM96.0 °F45.0 °F10 %29.75 in6.0 miEast (100°)11.2 mph
8:00 PM95.0 °F41.0 °F15 %29.77 in6.2 miEast (100°)11.2 mphClear
8:30 PM93.2 °F41.0 °F16 %29.77 in6.2 miESE (110°)11.2 mphClear
9:00 PM93.2 °F41.0 °F16 %29.77 in6.2 miESE (110°)13.4 mphClear
9:30 PM91.4 °F41.0 °F17 %29.80 in6.2 miESE (120°)13.4 mphClear
10:00 PM91.4 °F41.0 °F17 %29.80 in6.2 miESE (120°)13.4 mphClear
11:00 PM88.0 °F46.0 °F15 %29.78 in6.0 miESE (120°)11.2 mph
11:00 PM87.8 °F41.0 °F19 %29.80 in6.2 miESE (120°)11.2 mphClear
Hourly data recorded from UTAA, located miles away from Ashgabat, Turkmenistan







STORIES FROM OUR PARTNERS